Powrót do katalogu

HULIANWANG DIGUI-82

AktywnyŁącznośćPO
NORAD 65817·PAYLOAD·🇨🇳 China

Wystrzelony Sep 27, 2025 z Taiyuan Satellite Launch Center

Loading…

Następne Przeloty (najbliższe 24 godziny)

TLE

ŚwieżeSource: Space-Track

Epoka: Sep 14, 2026, 07:28 UTC

1 65817U 25220A   26257.31128759  .00000023  00000-0  18847-4 0  9993
2 65817  86.5031  13.7679 0001464  84.0245 276.1056 13.24411136 46714

Śledź HULIANWANG DIGUI-82 w czasie rzeczywistym z AllMySat

Download on the App Store